User: anonymous   Login
Location: Charbonni�res
(45.9952°N, 2.9982°E)
Time: 17:43:25
(UTC+00:00)
Language:

Sich 1 - Orbit

View from above orbital plane
View from above orbital plane
View from above satellite
View from above satellite

Ground track
Ground track

The orbit data is extracted from the following two-line orbital elements,

1 23657U 95046A   21128.43173703  .00000181  00000-0  17618-4 0  9996
2 23657  82.5288   5.2180 0023412  58.0390 302.3098 14.86283694388556
Epoch (UTC): 08 May 2021 10:21:42
Eccentricity: 0.0023412
inclination: 82.5288°
perigee height: 593 km
apogee height: 626 km
right ascension of ascending node: 5.2180°
argument of perigee: 58.0390°
revolutions per day: 14.86283694
mean anomaly at epoch: 302.3098°
orbit number at epoch: 38855

The dashed part of the orbit path shows where the satellite is in the earth's shadow,  

DLR